Jacksonville Craig, FL

10:55 AM EDT on May 27, 2018 (GMT -0400)
Craig Municipal

Weather History for KCRG - October, 2011

Change the Weather History Date:

Sunday, October 23, 2011

  Actual Average Record
Temperature  
Mean Temperature 60 °F -  
Max Temperature 73 °F 76 °F 90 °F (2007)
Min Temperature 48 °F 59 °F 48 °F (2011)
Degree Days  
Heating Degree Days 4    
Growing Degree Days 10 (Base 50)    
Moisture  
Dew Point 54 °F    
Average Humidity 75    
Maximum Humidity 90    
Minimum Humidity 57    
Precipitation  
Precipitation 0.00 in - - ()
Sea Level Pressure  
Sea Level Pressure 30.05 in    
Wind  
Wind Speed 3 mph (NNE)    
Max Wind Speed 13 mph    
Max Gust Speed 18 mph    
Visibility 10 miles    
Events      
Averages and records for this station are not official NWS values.
T = Trace of Precipitation, MM = Missing Value Source: NWS Daily Summary

Daily Weather History Graph

Daily Weather History Graph

Search for Another Location

Airport or City:

Astronomy

Oct. 23, 2011 Rise Set
Actual Time 7:33 AM EDT 6:46 PM EDT
Civil Twilight 7:09 AM EDT 7:11 PM EDT
Nautical Twilight 6:40 AM EDT 7:39 PM EDT
Astronomical Twilight 6:13 AM EDT 8:07 PM EDT
Moon 3:53 AM EDT (10/23) 4:25 PM EDT (10/23)
Length of Visible Light 12h 02m
Length of Day
11h 13m
Waning Crescent, 14% of the Moon is Illuminated
Oct 23
Waning Crescent
Oct 26
New
Nov 2
First Quarter
Nov 10
Full
Nov 18
Last Quarter

Hourly Weather History & Observations

Time (EDT) Temp. Dew Point Humidity Pressure Visibility Wind Dir Wind Speed Gust Speed Precip Events Conditions
12:53 AM 51.1 °F 46.0 °F 83% 30.07 in 10.0 mi Calm Calm - N/A   Partly Cloudy
1:53 AM 50.0 °F 46.0 °F 86% 30.06 in 10.0 mi Calm Calm - N/A   Clear
2:53 AM 48.9 °F 44.1 °F 83% 30.04 in 10.0 mi Calm Calm - N/A   Clear
3:53 AM 48.0 °F 44.1 °F 86% 30.04 in 10.0 mi Calm Calm - N/A   Clear
4:53 AM 50.0 °F 45.0 °F 83% 30.04 in 10.0 mi Calm Calm - N/A   Clear
5:53 AM 48.0 °F 44.1 °F 86% 30.04 in 10.0 mi Calm Calm - N/A   Clear
6:53 AM 48.9 °F 45.0 °F 86% 30.04 in 10.0 mi Calm Calm - N/A   Clear
7:53 AM 48.9 °F 46.0 °F 90% 30.05 in 10.0 mi Calm Calm - N/A   Clear
8:53 AM 59.0 °F 53.1 °F 81% 30.07 in 10.0 mi North 3.5 mph - N/A   Clear
10:53 AM 69.1 °F 55.0 °F 61% 30.08 in 10.0 mi North 4.6 mph - N/A   Clear
12:43 PM 73.4 °F 57.2 °F 57% 30.07 in 10.0 mi NNE 8.1 mph - N/A   Mostly Cloudy
12:53 PM 73.0 °F 57.0 °F 57% 30.06 in 10.0 mi NNE 9.2 mph - N/A   Mostly Cloudy
1:04 PM 73.4 °F 57.2 °F 57% 30.06 in 10.0 mi NE 11.5 mph - N/A   Scattered Clouds
1:53 PM 73.0 °F 57.9 °F 59% 30.05 in 10.0 mi NNE 12.7 mph 17.3 mph N/A   Scattered Clouds
2:53 PM 71.1 °F 57.0 °F 61% 30.04 in 10.0 mi NE 11.5 mph - N/A   Mostly Cloudy
3:41 PM 71.6 °F 57.2 °F 60% 30.03 in 10.0 mi NE 9.2 mph 18.4 mph N/A   Mostly Cloudy
3:53 PM 70.0 °F 57.0 °F 63% 30.03 in 10.0 mi NNE 10.4 mph - N/A   Overcast
4:22 PM 69.8 °F 57.2 °F 64% 30.02 in 10.0 mi NE 8.1 mph - N/A   Mostly Cloudy
4:48 PM 69.8 °F 57.2 °F 64% 30.02 in 10.0 mi NE 9.2 mph - N/A   Scattered Clouds
4:53 PM 71.1 °F 57.9 °F 63% 30.02 in 10.0 mi NE 8.1 mph - N/A   Mostly Cloudy
5:53 PM 70.0 °F 57.9 °F 65% 30.03 in 10.0 mi NNE 10.4 mph - N/A   Clear
6:53 PM 66.9 °F 57.9 °F 73% 30.04 in 10.0 mi NNE 4.6 mph - N/A   Clear
7:53 PM 64.0 °F 57.9 °F 80% 30.04 in 10.0 mi Calm Calm - N/A   Clear
8:38 PM 62.6 °F 59.0 °F 88% 30.06 in 10.0 mi NNW 4.6 mph - N/A   Mostly Cloudy
8:53 PM 64.0 °F 60.1 °F 87% 30.07 in 10.0 mi NNW 3.5 mph - N/A   Overcast
9:01 PM 64.4 °F 60.8 °F 88% 30.07 in 10.0 mi NNW 4.6 mph - N/A   Mostly Cloudy
9:53 PM 64.0 °F 59.0 °F 84% 30.08 in 10.0 mi Calm Calm - N/A   Scattered Clouds
10:53 PM 61.0 °F 57.0 °F 87% 30.08 in 10.0 mi Calm Calm - N/A   Clear
11:53 PM 59.0 °F 55.9 °F 90% 30.07 in 9.0 mi North 3.5 mph - N/A   Clear